Regional Weather Roundup
Issued by NWS Kansas City/Pleasant Hill, MO

Home | Current Version | Previous Version | Text Only | Print | Product List | Glossary On
Versions: 1 2 3 4 5 6 7 8 9 10 11 12 13 14 15 16 17 18 19 20 21 22 23 24 25 26 27
000
ASUS43 KEAX 212210
RWREAX

WEATHER ROUNDUP FOR EASTERN KANSAS AND NORTHWEST MISSOURI
NATIONAL WEATHER SERVICE KANSAS CITY/PLEASANT HILL MO
400 PM CST SAT JAN 21 2017

KSZ040-057-103>105-MOZ028-029-037-043-212300-
...KANSAS CITY METROPOLITAN AREA...

CITY           SKY/WX    TMP DP  RH WIND       PRES   REMARKS
K.C. INTL      PTSUNNY   54  39  57 S8        29.49R
K.C. DOWNTOWN  CLOUDY    56  40  55 S6        29.49R
LEES SUMMIT    CLOUDY    55  40  56 SW6       29.49R
OLATHE - IXD   CLOUDY    54  40  59 S6        29.48S
OLATHE - OJC   PTSUNNY   53  40  61 S5        29.48S
LAWRENCE       MOSUNNY   55  41  59 S6        29.48S

$$

MOZ001>008-011>017-020>025-030>033-038>040-044>046-053-054-212300-
...NORTHERN AND CENTRAL MISSOURI...

CITY           SKY/WX    TMP DP  RH WIND       PRES   REMARKS
ST. JOSEPH     SUNNY     52  44  74 S6        29.49R
MOSBY            N/A     54  41  62 CALM      29.51R
WARRENSBURG    CLOUDY    54  41  62 CALM      29.50S
WHITEMAN AFB   PTSUNNY   56  40  55 SW6       29.50R
CLINTON        CLOUDY    57  41  54 CALM      29.50S
SEDALIA        CLOUDY    58  41  53 S3        29.52R
WARSAW         NOT AVBL
CHILLICOTHE      N/A     51  43  74 SW6       29.51R
KIRKSVILLE     SUNNY     47  41  80 W8        29.52R

$$

MOZ041-047>049-056>058-063>065-088>090-097-212300-
...EASTERN AND SOUTHERN MISSOURI...

CITY           SKY/WX    TMP DP  RH WIND       PRES   REMARKS
ST. LOUIS INTL PTSUNNY   70  37  29 SW9       29.49S
SPIRIT OF STL  MOSUNNY   68  38  33 W5        29.48S
COLUMBIA       PTSUNNY   60  39  45 SW6       29.50R
JEFFERSON CITY CLOUDY    63  36  36 W5        29.50R
ROLLA          CLOUDY    64  38  38 SW7       29.49R
OSAGE BEACH    CLOUDY    63  35  35 SW5       29.50S
SPRINGFIELD    CLOUDY    65  40  39 S6        29.48S
BRANSON        CLOUDY    64  45  48 SE6       29.49S
JOPLIN         CLOUDY    61  40  45 VRB5      29.44F
WEST PLAINS    MOSUNNY   66  43  43 S7        29.51F

$$

IAZ060-094-KSZ022-034>040-054-083-096-NEZ052-066-093-212300-
...KANSAS...SOUTHEAST NEBRASKA AND IOWA...

CITY           SKY/WX    TMP DP  RH WIND       PRES   REMARKS
TOPEKA         MOSUNNY   56  40  55 S6        29.46F
MANHATTAN      SUNNY     57  38  48 CALM      29.44S
EMPORIA        CLOUDY    52  40  63 E6        29.44S
CHANUTE        LGT RAIN  53  40  61 SE9       29.47R
WICHITA        LGT RAIN  48  44  86 E9        29.41S
OMAHA          MOSUNNY   52  37  56 W9        29.45R
LINCOLN        SUNNY     53  38  56 W6        29.46R
FALLS CITY     SUNNY     54  39  57 SW7       29.46R
LAMONI         SUNNY     46  40  79 SW9       29.48R
DES MOINES     PTSUNNY   45  39  79 W14       29.48R

$$





USA.gov is the U.S. government's official web portal to all federal, state and local government web resources and services.